{"data":{"norad_id":65644,"intl_designator":"2025-210Y","name":"STARLINK-35141","alt_names":[],"object_type":"PAYLOAD","status":"ACTIVE","operator":null,"country":"US","launch_date":"2025-09-18","launch_site_code":"AFETR","launch_vehicle":null,"mission":null,"orbit_class":"UNKNOWN","rcs_meters":null,"size_class":null,"mass_kg":null,"dimensions":null,"purposes":["comms"],"wikipedia_slug":null,"has_3d_model":false,"image_url":null,"decayed_at":null,"tle_current":{"epoch":"2026-09-19T21:06:58.862016Z","epoch_age_seconds":162356,"freshness":"FRESH","line1":"1 65644U 25210Y   26262.87984794  .00006696  00000+0  22727-3 0  9998","line2":"2 65644  53.1583 124.2894 0001249  87.1367 272.9777 15.31711073 57473","mean_motion":15.31711073,"eccentricity":0.0001249,"inclination_deg":53.1583,"raan_deg":124.2894,"arg_perigee_deg":87.1367,"mean_anomaly_deg":272.9777,"bstar":0.00022727,"rev_number":5747,"period_min":94.012508323755,"perigee_km":469.85156677367,"apogee_km":471.56240800172,"semimajor_km":6848.8439873877,"source":"CELESTRAK","updated_at":"2026-09-21T09:00:35.677368Z"}}}